TimeAKDT,TemperatureF,Dew PointF,Humidity,Sea Level PressureIn,VisibilityMPH,Wind Direction,Wind SpeedMPH,Gust SpeedMPH,PrecipitationIn,Events,Conditions,WindDirDegrees,DateUTC
12:53 AM,32.0,28.9,88,29.86,10.0,South,8.1,-,N/A,,Clear,180,2012-10-06 08:53:00
2:53 AM,30.0,27.0,88,29.86,10.0,SSE,5.8,-,N/A,,Partly Cloudy,160,2012-10-06 10:53:00
3:53 AM,30.9,28.0,89,29.85,10.0,South,8.1,-,N/A,,Partly Cloudy,170,2012-10-06 11:53:00
4:53 AM,32.0,28.0,85,29.85,10.0,South,6.9,-,N/A,,Overcast,190,2012-10-06 12:53:00
5:53 AM,34.0,28.9,82,29.84,10.0,South,5.8,-,N/A,,Mostly Cloudy,170,2012-10-06 13:53:00
6:53 AM,35.1,30.0,82,29.84,10.0,South,6.9,-,N/A,,Overcast,170,2012-10-06 14:53:00
7:53 AM,34.0,30.0,85,29.84,10.0,South,4.6,-,N/A,,Overcast,180,2012-10-06 15:53:00
8:53 AM,34.0,28.9,82,29.83,10.0,South,5.8,-,N/A,,Partly Cloudy,190,2012-10-06 16:53:00
9:53 AM,35.1,30.0,82,29.84,10.0,South,6.9,-,N/A,,Overcast,180,2012-10-06 17:53:00
10:53 AM,35.1,30.0,82,29.85,10.0,SSW,8.1,-,N/A,,Overcast,210,2012-10-06 18:53:00
11:53 AM,35.1,30.9,85,29.86,10.0,South,6.9,-,N/A,,Overcast,180,2012-10-06 19:53:00
12:53 PM,36.0,32.0,86,29.87,10.0,South,8.1,-,N/A,,Scattered Clouds,180,2012-10-06 20:53:00
1:53 PM,37.9,33.1,83,29.88,10.0,SSW,8.1,-,N/A,,Mostly Cloudy,200,2012-10-06 21:53:00
2:53 PM,39.0,33.1,79,29.90,10.0,SW,10.4,-,N/A,,Overcast,220,2012-10-06 22:53:00
3:53 PM,41.0,34.0,76,29.92,10.0,WSW,6.9,-,N/A,,Overcast,250,2012-10-06 23:53:00
4:53 PM,43.0,33.1,68,29.93,10.0,WSW,12.7,-,N/A,,Overcast,250,2012-10-07 00:53:00
5:53 PM,39.9,32.0,73,29.94,10.0,SW,10.4,-,N/A,,Mostly Cloudy,220,2012-10-07 01:53:00
6:53 PM,36.0,30.0,79,29.95,10.0,SW,8.1,-,N/A,,Clear,220,2012-10-07 02:53:00
7:53 PM,36.0,30.0,79,29.96,10.0,WSW,12.7,-,N/A,,Clear,240,2012-10-07 03:53:00
8:53 PM,36.0,28.9,76,29.98,10.0,WSW,13.8,-,N/A,,Clear,240,2012-10-07 04:53:00
9:53 PM,35.1,30.0,82,29.99,10.0,WSW,13.8,-,N/A,,Clear,240,2012-10-07 05:53:00
10:53 PM,30.9,28.0,89,30.01,10.0,South,8.1,-,N/A,,Clear,180,2012-10-07 06:53:00
11:53 PM,30.0,27.0,88,30.03,10.0,South,9.2,-,N/A,,Clear,190,2012-10-07 07:53:00